Location: �bnet
(46.9957°N, 8.4908°E)
Time: 01:25:25
(UTC+00:00)

Cosmos 1354 Rocket - Pass Details

Date: 11 May 2021
Orbit: 763 x 784 km, 74.0° (Epoch: 23 June)

Event Time Altitude Azimuth Distance (km) Brightness Sun altitude
Rises 19:34:13 0° 188° (S) 3,214 6.9 -7.2°
Reaches altitude 10° 19:36:36 10° 185° (S) 2,293 6.2 -7.5°
Maximum altitude 19:41:42 58° 107° (ESE) 889 4.1 -8.2°
Drops below altitude 10° 19:46:50 10° 29° (NNE) 2,317 6.6 -8.9°
Sets 19:49:15 0° 26° (NNE) 3,251 7.4 -9.2°
